TimeCET,TemperatureF,Dew PointF,Humidity,Sea Level PressureIn,VisibilityMPH,Wind Direction,Wind SpeedMPH,Gust SpeedMPH,PrecipitationIn,Events,Conditions,WindDirDegrees,DateUTC
1:00 AM,37,29,64,30.05,,NNE,8.9,,,,,30,2013-03-02 00:00:00
5:15 AM,32.0,28.4,87,30.06,-9999.0,NNW,1.2,-,N/A,,Clear,330,2013-03-02 04:15:00
5:45 AM,32.0,28.4,87,30.06,-9999.0,WNW,2.3,-,N/A,,Clear,290,2013-03-02 04:45:00
6:00 AM,-9999,-9999,N/A,-9999,6.2,NNW,9.2,-,N/A,,Mostly Cloudy,330,2013-03-02 05:00:00
6:15 AM,32.0,30.2,93,30.09,5.0,NW,4.6,-,N/A,,Partly Cloudy,310,2013-03-02 05:15:00
6:45 AM,32.0,30.2,93,30.09,3.7,NW,3.5,-,N/A,,Partly Cloudy,310,2013-03-02 05:45:00
7:00 AM,31,30,93,30.12,4,NW,2.2,,,,Partly Cloudy,310,2013-03-02 06:00:00
7:15 AM,32.0,30.2,93,30.09,3.7,NW,2.3,-,N/A,,Partly Cloudy,310,2013-03-02 06:15:00
7:45 AM,33.8,32.0,93,30.12,3.7,WNW,4.6,-,N/A,,Partly Cloudy,300,2013-03-02 06:45:00
8:15 AM,35.6,33.8,93,30.12,3.7,WNW,8.1,-,N/A,,Partly Cloudy,300,2013-03-02 07:15:00
8:45 AM,35.6,33.8,93,30.12,5.0,WNW,6.9,-,N/A,,Partly Cloudy,290,2013-03-02 07:45:00
9:00 AM,-9999,-9999,N/A,-9999,5.0,NNW,8.1,-,N/A,,Scattered Clouds,330,2013-03-02 08:00:00
9:45 AM,41.0,32.0,70,30.12,6.2,WNW,6.9,-,N/A,,Partly Cloudy,290,2013-03-02 08:45:00
10:15 AM,41.0,30.2,65,30.12,6.2,NW,5.8,-,N/A,,Partly Cloudy,320,2013-03-02 09:15:00
10:45 AM,42.8,28.4,57,30.12,6.2,NNW,10.4,-,N/A,,Partly Cloudy,340,2013-03-02 09:45:00
11:45 AM,44.6,23.0,43,30.12,6.2,NNE,12.7,-,N/A,,Partly Cloudy,20,2013-03-02 10:45:00
12:00 PM,-9999,-9999,N/A,-9999,6.2,NNW,10.4,-,N/A,,Scattered Clouds,340,2013-03-02 11:00:00
12:15 PM,44.6,21.2,39,30.12,6.2,North,9.2,-,N/A,,Partly Cloudy,360,2013-03-02 11:15:00
12:45 PM,44.6,21.2,39,30.12,6.2,North,10.4,-,N/A,,Partly Cloudy,350,2013-03-02 11:45:00
1:00 PM,45,22,26,30.13,19,North,8.9,,,,Partly Cloudy,350,2013-03-02 12:00:00
1:15 PM,46.4,23.0,40,30.12,6.2,NNW,6.9,-,N/A,,Partly Cloudy,330,2013-03-02 12:15:00
1:45 PM,44.6,21.2,39,30.12,6.2,NW,9.2,-,N/A,,Scattered Clouds,320,2013-03-02 12:45:00
2:15 PM,44.6,19.4,37,30.12,6.2,NW,9.2,-,N/A,,Mostly Cloudy,320,2013-03-02 13:15:00
2:45 PM,46.4,21.2,37,30.12,6.2,WNW,5.8,-,N/A,,Scattered Clouds,300,2013-03-02 13:45:00
3:15 PM,46.4,21.2,37,30.12,6.2,NNW,4.6,-,N/A,,Scattered Clouds,340,2013-03-02 14:15:00
3:45 PM,46.4,23.0,40,30.12,6.2,NW,8.1,-,N/A,,Scattered Clouds,310,2013-03-02 14:45:00
4:15 PM,44.6,21.2,39,30.12,6.2,WNW,6.9,-,N/A,,Partly Cloudy,300,2013-03-02 15:15:00
4:45 PM,44.6,23.0,43,30.12,6.2,WNW,4.6,-,N/A,,Partly Cloudy,290,2013-03-02 15:45:00
5:00 PM,-9999,-9999,N/A,-9999,-9999.0,North,-9999.0,-,N/A,,Unknown,0,2013-03-02 16:00:00
7:00 PM,40,25,43,30.15,,Calm,Calm,,,,,,2013-03-02 18:00:00